Vorticity
10 6 10 17 3 -12 -1 13 -12 8 13 -4 -7 19 6 -6 5 9 8 19 3 3 9 7 4 8 7 7 8 5 5 -3 2 7 6 3 3 5 4 3 3 3 3 2
7 7 12 13 17 11 -3 2 -2 21 -4 -7 3 25 32 8 10 16 4 7 17 2 7 10 7 3 4 5 9 9 9 11 7 -2 6 7 1 1 4 2 1 2 3 2
6 4 10 14 9 10 -16 8 -9 1 -6 13 30 -25 -3 12 12 4 8 5 16 13 8 11 11 8 3 4 7 5 9 10 11 15 1 3 4 1 1 4 5 4 4 4
3 5 6 8 12 -0 6 6 32 -10 27 6 12 16 6 25 -9 11 10 6 4 5 16 7 11 10 9 4 3 7 6 5 3 4 5 2 2 2 6 6 8 7 9 9
7 8 4 6 4 7 13 0 -2 -0 0 -9 2 7 6 1 -4 28 12 2 5 6 6 13 3 11 10 9 5 6 7 8 5 2 4 2 6 9 3 6 6 12 13 15
3 5 6 6 2 16 7 -11 14 6 -11 1 1 -0 8 -8 9 9 26 13 3 4 10 15 7 3 14 12 14 7 3 4 4 6 6 7 6 7 5 4 6 14 12 14
8 4 8 -2 8 0 13 7 1 3 1 22 8 5 -0 -2 9 13 -3 20 10 15 9 12 8 8 -0 10 11 14 8 5 1 3 3 3 4 4 4 5 6 12 9 7
17 6 8 13 -3 6 3 8 7 6 -4 19 7 8 2 12 2 13 0 -2 -1 15 11 8 9 14 4 5 6 17 13 11 7 6 5 3 5 5 2 4 7 11 8 5
23 7 33 37 -6 18 3 8 11 -4 4 1 9 -1 16 -14 4 -40 5 1 22 18 17 13 7 9 14 9 3 8 11 8 13 10 7 5 6 4 4 4 6 9 11 4
22 44 2 16 34 2 9 9 16 3 9 -4 5 15 5 12 13 11 14 18 34 1 11 7 23 13 8 10 8 11 -0 5 8 9 11 8 8 5 5 4 4 9 12 5
8 13 14 4 6 20 11 10 -2 17 1 1 14 -14 3 6 -10 10 15 18 -6 1 7 13 10 11 13 12 18 35 7 2 10 8 9 13 8 9 9 11 6 6 10 10
-3 2 19 17 18 15 6 21 -5 4 7 17 -3 10 10 14 8 20 12 11 9 21 12 8 6 8 15 13 14 12 8 7 4 11 10 10 13 9 7 9 10 6 6 9
22 -6 6 11 19 15 16 6 23 1 -2 19 4 3 -18 35 11 48 0 -4 -8 11 8 8 9 7 10 14 13 14 11 11 7 11 10 11 10 12 12 7 7 7 6 8
36 28 -5 11 17 19 16 17 8 15 3 6 17 4 5 4 35 -1 6 20 35 12 2 7 1 6 7 9 15 13 12 11 11 9 10 13 11 8 8 10 11 10 9 8
-1 33 14 -1 5 -20 27 16 11 2 21 1 9 24 -23 13 -2 36 -8 -19 9 -2 6 1 11 0 5 8 12 16 18 13 8 15 19 22 9 7 5 6 5 6 8 10
15 29 8 45 -1 -7 4 4 20 39 16 12 5 7 -7 27 20 -15 68 28 37 5 2 -1 8 8 5 -0 3 7 10 11 12 9 11 16 21 16 7 5 6 7 7 8
3 18 1 54 -13 -21 2 0 3 20 51 5 20 -28 -4 2 22 12 -11 -12 10 25 17 4 16 4 4 15 9 8 2 2 3 2 2 3 5 9 13 11 12 13 11 10
20 12 13 -8 45 -4 3 10 12 3 16 28 13 -1 2 3 8 15 8 8 -6 16 7 8 5 8 4 1 6 9 7 7 2 5 6 3 5 1 -3 6 8 7 5 5
19 8 9 10 30 18 -14 11 1 6 3 5 26 12 2 4 7 0 6 -4 22 2 16 0 -4 13 6 3 5 5 6 4 4 7 5 1 6 4 16 15 5 5 3 0
25 24 5 16 -21 29 8 7 20 4 -6 -4 9 24 14 9 9 6 -1 13 2 5 2 9 8 4 4 4 2 10 -1 3 3 3 3 -5 2 10 4 3 -8 4 40 8
8 32 30 2 23 -9 26 13 -3 22 -10 21 -0 5 16 17 1 3 2 2 8 20 27 -4 3 -1 -6 14 -7 1 14 -0 2 2 2 1 3 5 5 3 6 7 14 -27
46 9 31 2 -0 10 -9 -13 1 -6 12 20 58 44 17 13 19 3 1 -0 -7 -9 -12 29 11 6 5 1 23 13 31 -15 -3 5 0 -1 4 3 0 5 2 28 1 12
4 -1 1 11 30 1 24 -22 19 58 68 2 -66 13 39 13 -1 3 22 30 22 13 16 11 8 12 9 7 5 21 -48 -8 5 -1 -5 1 3 3 0 4 1 14 18 22
17 24 17 14 37 3 -9 -6 5 50 7 -10 5 -7 17 22 30 26 29 20 8 9 11 11 15 11 6 10 11 19 11 -5 25 0 -9 6 -16 -6 4 4 3 9 6 11
18 -19 58 9 25 40 -3 10 20 -27 -4 -23 31 20 7 13 22 21 13 10 20 24 14 15 12 19 12 9 7 6 6 1 -3 -1 4 5 -8 2 3 2 7 -1 -2 -2
19 36 26 5 43 27 29 -11 6 15 14 21 24 -1 5 7 8 18 12 17 18 14 22 14 18 21 18 17 8 13 0 3 3 5 1 -5 -5 -7 -6 2 -3 -14 -13 5
Height
5882 5883 5886 5892 5896 5901 5904 5904 5905 5906 5906 5906 5909 5905 5912 5914 5912 5914 5914 5916 5918 5919 5920 5922 5925 5927 5930 5932 5934 5936 5939 5941 5942 5944 5945 5947 5949 5951 5953 5955 5957 5960 5962 5963
5875 5877 5886 5889 5892 5896 5900 5902 5903 5905 5904 5908 5909 5907 5905 5907 5910 5910 5911 5913 5915 5917 5919 5921 5923 5926 5929 5932 5934 5936 5939 5941 5943 5945 5948 5949 5951 5952 5955 5957 5959 5961 5962 5964
5869 5876 5880 5882 5884 5888 5895 5898 5902 5905 5901 5907 5907 5908 5905 5904 5907 5909 5909 5910 5912 5914 5917 5919 5922 5924 5928 5931 5934 5936 5939 5941 5943 5946 5948 5950 5953 5955 5957 5959 5960 5961 5962 5963
5862 5869 5871 5874 5878 5883 5889 5899 5901 5899 5899 5905 5905 5907 5908 5905 5903 5905 5907 5908 5908 5912 5915 5917 5920 5922 5926 5929 5933 5936 5939 5941 5943 5946 5948 5951 5953 5954 5957 5958 5959 5960 5961 5961
5856 5860 5865 5867 5873 5878 5884 5893 5897 5898 5897 5900 5901 5904 5903 5901 5902 5902 5904 5908 5907 5908 5911 5914 5917 5919 5922 5926 5930 5934 5937 5940 5943 5945 5947 5949 5952 5954 5954 5957 5957 5958 5959 5960
5844 5849 5856 5862 5867 5872 5878 5884 5886 5891 5890 5892 5899 5903 5900 5899 5898 5896 5897 5903 5905 5905 5907 5910 5913 5917 5920 5923 5928 5932 5936 5939 5941 5944 5946 5948 5950 5953 5953 5955 5957 5958 5959 5961
5833 5839 5846 5851 5858 5866 5870 5877 5880 5882 5884 5887 5896 5900 5899 5896 5893 5896 5895 5897 5901 5902 5904 5906 5910 5914 5917 5921 5924 5928 5931 5935 5939 5942 5945 5946 5949 5950 5952 5954 5955 5957 5959 5961
5822 5828 5837 5843 5846 5858 5864 5869 5873 5878 5882 5888 5891 5893 5900 5890 5891 5892 5894 5891 5899 5899 5900 5903 5906 5910 5914 5917 5920 5923 5926 5929 5933 5938 5941 5944 5946 5948 5950 5952 5953 5955 5956 5960
5811 5811 5826 5832 5840 5849 5854 5860 5868 5873 5880 5884 5886 5890 5896 5891 5889 5891 5892 5889 5892 5893 5897 5898 5901 5905 5910 5914 5917 5919 5921 5924 5928 5932 5935 5939 5943 5946 5947 5949 5951 5952 5953 5956
5799 5801 5812 5825 5833 5837 5844 5854 5859 5862 5867 5870 5876 5881 5884 5883 5885 5889 5887 5885 5891 5892 5890 5893 5897 5901 5905 5908 5911 5914 5917 5919 5921 5925 5930 5934 5937 5941 5943 5946 5949 5951 5951 5954
5784 5790 5802 5812 5820 5827 5835 5838 5845 5857 5861 5865 5870 5874 5874 5873 5883 5882 5882 5882 5883 5888 5890 5889 5892 5897 5899 5902 5905 5909 5912 5914 5918 5921 5924 5928 5932 5935 5938 5942 5944 5947 5949 5951
5782 5779 5787 5798 5809 5821 5827 5831 5837 5842 5852 5859 5864 5871 5870 5869 5873 5877 5877 5879 5880 5882 5884 5888 5889 5891 5895 5898 5900 5904 5907 5910 5913 5917 5919 5923 5925 5929 5932 5936 5939 5941 5944 5946
5770 5777 5780 5787 5797 5805 5815 5823 5830 5837 5846 5852 5858 5863 5849 5864 5866 5865 5867 5869 5878 5883 5882 5884 5886 5887 5891 5893 5895 5899 5902 5905 5908 5912 5915 5917 5921 5924 5926 5930 5933 5935 5938 5941
5762 5770 5777 5782 5794 5807 5812 5815 5821 5829 5835 5841 5846 5856 5854 5855 5859 5851 5858 5865 5874 5875 5877 5880 5882 5884 5884 5888 5890 5892 5896 5898 5903 5906 5909 5912 5916 5918 5920 5924 5927 5930 5932 5935
5755 5757 5764 5771 5776 5784 5787 5806 5810 5813 5821 5831 5843 5850 5856 5849 5844 5844 5851 5857 5863 5869 5872 5876 5877 5879 5882 5885 5887 5888 5891 5893 5897 5900 5904 5907 5909 5912 5915 5919 5920 5923 5926 5928
5744 5747 5749 5753 5766 5771 5778 5786 5800 5806 5811 5819 5829 5838 5842 5832 5836 5842 5834 5851 5857 5863 5866 5871 5871 5875 5876 5880 5883 5886 5888 5890 5893 5895 5898 5900 5903 5906 5910 5913 5915 5917 5919 5922
5735 5739 5746 5750 5763 5768 5770 5778 5788 5800 5804 5810 5817 5830 5814 5814 5822 5833 5831 5842 5849 5853 5858 5863 5864 5870 5874 5879 5881 5882 5883 5886 5889 5892 5893 5896 5899 5901 5904 5904 5907 5910 5912 5913
5725 5732 5739 5744 5750 5750 5766 5779 5785 5789 5799 5804 5810 5807 5808 5807 5817 5822 5827 5832 5840 5844 5850 5855 5859 5862 5866 5869 5874 5877 5880 5882 5884 5886 5889 5891 5895 5897 5898 5900 5902 5904 5905 5907
5716 5723 5729 5736 5742 5748 5759 5764 5770 5775 5786 5796 5794 5793 5798 5803 5807 5811 5815 5820 5828 5836 5841 5846 5850 5853 5857 5861 5863 5866 5870 5874 5876 5879 5883 5885 5887 5889 5891 5893 5895 5896 5897 5899
5712 5715 5721 5729 5732 5738 5749 5750 5756 5769 5781 5777 5781 5784 5790 5796 5798 5800 5804 5810 5815 5827 5833 5836 5839 5843 5848 5852 5855 5859 5863 5865 5869 5871 5875 5878 5880 5881 5883 5885 5885 5876 5878 5879
5703 5707 5712 5720 5725 5734 5728 5740 5750 5760 5768 5767 5768 5775 5780 5786 5788 5791 5794 5800 5808 5816 5821 5826 5829 5831 5837 5843 5847 5850 5852 5855 5857 5861 5865 5868 5868 5873 5876 5877 5877 5876 5875 5876
5692 5696 5703 5713 5717 5722 5718 5727 5737 5747 5752 5761 5764 5755 5766 5773 5778 5782 5785 5790 5799 5806 5809 5813 5818 5821 5824 5830 5836 5833 5841 5843 5847 5851 5855 5857 5860 5863 5864 5865 5867 5853 5862 5870
5685 5692 5695 5699 5710 5713 5713 5717 5726 5732 5739 5741 5732 5732 5744 5758 5764 5771 5775 5781 5787 5791 5796 5803 5807 5811 5812 5815 5822 5829 5828 5830 5833 5839 5844 5846 5849 5850 5851 5852 5855 5857 5861 5864
5676 5682 5687 5693 5700 5707 5709 5714 5720 5723 5723 5731 5732 5735 5742 5749 5754 5759 5765 5770 5773 5780 5786 5791 5796 5800 5802 5803 5807 5812 5815 5818 5822 5826 5830 5835 5836 5839 5841 5842 5844 5847 5848 5848
5670 5672 5682 5689 5693 5698 5705 5711 5716 5719 5720 5721 5723 5731 5738 5743 5747 5751 5753 5758 5763 5768 5773 5778 5784 5789 5792 5794 5796 5800 5806 5809 5813 5817 5821 5822 5825 5828 5830 5834 5836 5837 5841 5843
5672 5674 5678 5673 5686 5693 5698 5704 5711 5711 5713 5717 5721 5726 5734 5738 5741 5744 5747 5751 5755 5759 5763 5767 5772 5777 5781 5785 5788 5792 5794 5798 5802 5806 5808 5810 5814 5817 5820 5821 5823 5825 5828 5832